Regional Weather Roundup
Issued by NWS Cleveland, OH

Home | Current Version | Previous Version | Graphics & Text | Print | Product List | Glossary On
Versions: 1 2 3 4 5 6 7 8 9 10 11 12 13 14 15 16 17 18 19 20 21 22 23 24 25 26 27 28 29 30 31 32 33 34 35 36 37 38 39 40 41 42 43 44 45 46 47 48 49 50
186
ASUS41 KCLE 211310
RWRCLE
OHIO REGIONAL WEATHER ROUNDUP
NATIONAL WEATHER SERVICE CLEVELAND, OH
800 AM EST SAT JAN 21 2017

NOTE: "FAIR" INDICATES FEW OR NO CLOUDS BELOW 12,000 FEET WITH NO
SIGNIFICANT WEATHER AND/OR OBSTRUCTIONS TO VISIBILITY.

OHZ001>008-015>018-024>027-034-035-043-044-211400-
   NORTHWEST OHIO

CITY           SKY/WX    TMP DP  RH WIND       PRES   REMARKS
DEFIANCE       CLEAR     46  44  93 S6        29.68R
FINDLAY        PTCLDY    48  43  82 S10       29.70R
TOLEDO EXPRESS PTCLDY    45  45 100 SE3       29.68F
TOLEDO EXEC    MOCLDY    46  45  96 S6        29.70S
LIMA           PTCLDY    47  46  97 S9        29.70R
$$

OHZ009>014-019>023-028>033-038-089-211400-
   NORTHEAST OHIO

CITY           SKY/WX    TMP DP  RH WIND       PRES   REMARKS
CLE-HOPKINS    PTCLDY    48  43  82 S8        29.75F
CLE-LAKEFRONT  PTCLDY    50  46  86 S14       29.72F
CUY CO. ARPT   PTCLDY    50  48  93 S16       29.75S
LORAIN-ELYRIA  PTCLDY    47  43  86 S12       29.73F
ASHTABULA      CLOUDY    46  46 100 SE6       29.77F
AKRON-CANTON   PTCLDY    46  43  89 SE5       29.76F FOG
WOOSTER        FOG       38  37  97 E3        29.75F VSB<1/4
MANSFIELD      PTCLDY    48  47  96 S12       29.73F
YOUNGSTOWN     MOCLDY    46  44  93 SE7       29.78S FOG
$$

OHZ042-051>053-060>062-070>072-077>081-211400-
  SOUTHWEST OHIO

CITY           SKY/WX    TMP DP  RH WIND       PRES   REMARKS
CINC-COVINGTON PTCLDY    48  46  93 S7        29.69F
CINC-LUNKEN    MOCLDY    39  39 100 CALM      29.73F
HAMILTON       PTCLDY    46  45  96 E5        29.71F
DAYTON         MOCLDY    47  45  93 S8        29.71S
WRIGHT-PAT AFB PTCLDY    44  44 100 CALM      29.71S
DAYTON GENERAL NOT AVBL
WILMINGTON     CLEAR     48  46  93 S7        29.73S
$$

OHZ036-037-039>041-045>050-054>059-063>069-073>076-082>088-211400-
  CENTRAL AND SOUTHEAST OHIO

CITY           SKY/WX    TMP DP  RH WIND       PRES   REMARKS
COLUMBUS       MOCLDY    46  44  93 SE5       29.74R
OSU AIRPORT    PTCLDY    46  46 100 SE6       29.73S
BOLTON FIELD   PTCLDY    45  45 100 S7        29.74F
RICKENBACK AFB FOG       41  41 100 CALM      29.74F VSB 1/4
NEWARK         CLOUDY    37  36  96 CALM      29.76S FOG
MARION         CLEAR     47  45  93 S9        29.73S
LANCASTER      MOCLDY    44  41  89 S3        29.76R FOG
ZANESVILLE     FOG       40  40 100 CALM      29.77R VSB 1/4
NEW PHILLY     NOT AVBL
$$




USA.gov is the U.S. government's official web portal to all federal, state and local government web resources and services.